Location: Middelsbur
(53.6609°N, 7.5020°E)
Time: 00:22:57
(UTC+00:00)

CZ-4C R/B - Pass Details

Date: 06 July 2020
Orbit: 632 x 1369 km, 63.4° (Epoch: 02 August)

Event Time Altitude Azimuth Distance (km) Brightness Sun altitude
Rises 22:08:23 0° 306° (NW) 3,586 6.5 -11.5°
Reaches altitude 10° 22:10:49 10° 311° (NW) 2,744 5.9 -11.6°
Maximum altitude 22:17:16 53° 28° (NNE) 1,351 3.5 -11.9°
Drops below altitude 10° 22:24:54 10° 105° (ESE) 3,242 4.9 -12.3°
Sets 22:28:00 0° 110° (ESE) 4,285 5.5 -12.4°
